When you browse on this site, cookies collect data to enhance your experience and personalize the content and advertising you see.
Visit our Privacy Policy to learn more. By continuing to use the site, you agree to this use of cookies and data.
  • In Deutschland
  • Länderverzeichnis
  • Für 7 Tage
  • Wassertemperatur
  • Wetterkarte
  • Widgets
  • user-avatar
    Anmelden

    Stündliche Wetter Jalalabad

    Heute, 27 Januar, Montag

    Zeit Temperatur Niederschläge Wind Luftdruck Luftfeuchtigkeit
    00:00 +9°C° 0 mm 1 m/S 710 mmHg 44%
    01:00 +9°C° 0 mm 1 m/S 710 mmHg 44%
    02:00 +8°C° 0 mm 1 m/S 709 mmHg 44%
    03:00 +8°C° 0 mm 1 m/S 709 mmHg 45%
    04:00 +8°C° 0 mm 1 m/S 709 mmHg 45%
    05:00 +7°C° 0 mm 1 m/S 708 mmHg 46%
    06:00 +8°C° 0 mm 1 m/S 709 mmHg 45%
    07:00 +8°C° 0 mm 1 m/S 709 mmHg 44%
    08:00 +8°C° 0 mm 1 m/S 710 mmHg 43%
    09:00 +10°C° 0 mm 1 m/S 709 mmHg 39%
    10:00 +11°C° 0 mm 1 m/S 709 mmHg 35%
    11:00 +12°C° 0 mm 2 m/S 708 mmHg 30%
    12:00 +13°C° 0 mm 2 m/S 708 mmHg 30%
    13:00 +14°C° 0 mm 2 m/S 708 mmHg 30%
    14:00 +14°C° 0 mm 2 m/S 708 mmHg 31%
    15:00 +14°C° 0 mm 2 m/S 708 mmHg 33%
    16:00 +14°C° 0 mm 2 m/S 708 mmHg 35%
    17:00 +14°C° 0 mm 2 m/S 708 mmHg 36%
    18:00 +13°C° 0 mm 2 m/S 708 mmHg 39%
    19:00 +13°C° 0 mm 2 m/S 709 mmHg 42%
    20:00 +12°C° 0 mm 2 m/S 709 mmHg 45%
    21:00 +12°C° 0 mm 2 m/S 709 mmHg 45%
    22:00 +10°C° 0 mm 2 m/S 710 mmHg 44%
    23:00 +10°C° 0 mm 2 m/S 710 mmHg 43%

    Morgen, 28 Januar, Dienstag

    Zeit Temperatur Niederschläge Wind Luftdruck Luftfeuchtigkeit
    00:00 +10°C° 0 mm 2 m/S 709 mmHg 43%
    01:00 +9°C° 0 mm 2 m/S 709 mmHg 42%
    02:00 +9°C° 0 mm 3 m/S 709 mmHg 42%
    03:00 +8°C° 0 mm 3 m/S 709 mmHg 41%
    04:00 +8°C° 0 mm 2 m/S 708 mmHg 40%
    05:00 +7°C° 0 mm 2 m/S 708 mmHg 39%
    06:00 +7°C° 0 mm 2 m/S 708 mmHg 39%
    07:00 +7°C° 0 mm 2 m/S 709 mmHg 38%
    08:00 +6°C° 0 mm 2 m/S 709 mmHg 38%
    09:00 +8°C° 0 mm 2 m/S 708 mmHg 33%
    10:00 +9°C° 0 mm 2 m/S 708 mmHg 28%
    11:00 +12°C° 0 mm 2 m/S 708 mmHg 23%
    12:00 +13°C° 0 mm 2 m/S 707 mmHg 22%
    13:00 +12°C° 0 mm 3 m/S 706 mmHg 21%
    14:00 +13°C° 0 mm 3 m/S 706 mmHg 19%
    15:00 +13°C° 0 mm 3 m/S 706 mmHg 20%
    16:00 +14°C° 0 mm 2 m/S 706 mmHg 21%
    17:00 +14°C° 0 mm 2 m/S 706 mmHg 22%
    18:00 +12°C° 0 mm 2 m/S 706 mmHg 26%
    19:00 +11°C° 0 mm 1 m/S 707 mmHg 30%
    20:00 +10°C° 0 mm 1 m/S 708 mmHg 34%
    21:00 +10°C° 0 mm 1 m/S 708 mmHg 34%
    22:00 +9°C° 0 mm 1 m/S 708 mmHg 35%
    23:00 +8°C° 0 mm 2 m/S 708 mmHg 35%

    übermorgen, 29 Januar, Mittwoch

    Zeit Temperatur Niederschläge Wind Luftdruck Luftfeuchtigkeit
    00:00 +8°C° 0 mm 2 m/S 708 mmHg 35%
    01:00 +7°C° 0 mm 2 m/S 708 mmHg 35%
    02:00 +7°C° 0 mm 2 m/S 707 mmHg 35%
    03:00 +6°C° 0 mm 2 m/S 707 mmHg 36%
    04:00 +7°C° 0 mm 1 m/S 707 mmHg 36%
    05:00 +6°C° 0 mm 1 m/S 706 mmHg 37%
    06:00 +6°C° 0 mm 1 m/S 707 mmHg 36%
    07:00 +7°C° 0 mm 1 m/S 708 mmHg 35%
    08:00 +7°C° 0 mm 1 m/S 708 mmHg 34%
    09:00 +8°C° 0 mm 1 m/S 708 mmHg 30%
    10:00 +9°C° 0 mm 1 m/S 709 mmHg 27%
    11:00 +10°C° 0 mm 1 m/S 709 mmHg 23%
    12:00 +11°C° 0 mm 1 m/S 709 mmHg 21%
    13:00 +12°C° 0 mm 1 m/S 709 mmHg 20%
    14:00 +13°C° 0 mm 1 m/S 708 mmHg 18%
    15:00 +13°C° 0 mm 1 m/S 709 mmHg 19%
    16:00 +13°C° 0 mm 1 m/S 709 mmHg 20%
    17:00 +13°C° 0 mm 1 m/S 709 mmHg 21%
    18:00 +12°C° 0 mm 1 m/S 710 mmHg 25%
    19:00 +11°C° 0 mm 1 m/S 710 mmHg 28%
    20:00 +10°C° 0 mm 1 m/S 711 mmHg 31%
    21:00 +9°C° 0 mm 1 m/S 711 mmHg 32%
    22:00 +9°C° 0 mm 1 m/S 711 mmHg 33%
    23:00 +8°C° 0 mm 1 m/S 711 mmHg 34%

    30 Januar, Donnerstag

    Zeit Temperatur Niederschläge Wind Luftdruck Luftfeuchtigkeit
    00:00 +8°C° 0 mm 1 m/S 711 mmHg 33%
    01:00 +7°C° 0 mm 1 m/S 711 mmHg 33%
    02:00 +7°C° 0 mm 1 m/S 711 mmHg 33%
    03:00 +7°C° 0 mm 1 m/S 711 mmHg 33%
    04:00 +6°C° 0 mm 1 m/S 711 mmHg 34%
    05:00 +6°C° 0 mm 1 m/S 710 mmHg 34%
    06:00 +6°C° 0 mm 1 m/S 711 mmHg 34%
    07:00 +6°C° 0 mm 1 m/S 711 mmHg 35%
    08:00 +6°C° 0 mm 1 m/S 711 mmHg 35%
    09:00 +8°C° 0 mm 1 m/S 711 mmHg 31%
    10:00 +9°C° 0 mm 1 m/S 711 mmHg 27%
    11:00 +11°C° 0 mm 1 m/S 711 mmHg 22%
    12:00 +12°C° 0 mm 1 m/S 710 mmHg 21%
    13:00 +13°C° 0 mm 1 m/S 710 mmHg 20%
    14:00 +14°C° 0 mm 1 m/S 709 mmHg 19%
    15:00 +14°C° 0 mm 1 m/S 709 mmHg 20%
    16:00 +14°C° 0 mm 1 m/S 709 mmHg 21%
    17:00 +14°C° 0 mm 1 m/S 709 mmHg 23%
    18:00 +13°C° 0 mm 1 m/S 709 mmHg 26%
    19:00 +12°C° 0 mm 1 m/S 710 mmHg 29%
    20:00 +11°C° 0 mm 1 m/S 710 mmHg 32%
    21:00 +10°C° 0 mm 1 m/S 710 mmHg 33%
    22:00 +10°C° 0 mm 1 m/S 710 mmHg 33%
    23:00 +10°C° 0 mm 1 m/S 710 mmHg 34%

    31 Januar, Freitag

    Zeit Temperatur Niederschläge Wind Luftdruck Luftfeuchtigkeit
    00:00 +10°C° 0 mm 1 m/S 710 mmHg 34%
    01:00 +10°C° 0 mm 1 m/S 709 mmHg 35%
    02:00 +9°C° 0 mm 1 m/S 709 mmHg 35%
    03:00 +9°C° 0 mm 1 m/S 709 mmHg 36%
    04:00 +9°C° 0 mm 1 m/S 708 mmHg 36%
    05:00 +9°C° 0 mm 1 m/S 708 mmHg 37%
    06:00 +9°C° 0 mm 1 m/S 708 mmHg 38%
    07:00 +9°C° 0 mm 1 m/S 709 mmHg 39%
    08:00 +9°C° 0 mm 1 m/S 709 mmHg 40%
    09:00 +10°C° 0 mm 1 m/S 709 mmHg 36%
    10:00 +11°C° 0 mm 1 m/S 709 mmHg 33%
    11:00 +13°C° 0 mm 2 m/S 709 mmHg 30%
    12:00 +14°C° 0 mm 2 m/S 708 mmHg 30%
    13:00 +14°C° 0 mm 2 m/S 708 mmHg 29%
    14:00 +15°C° 0 mm 2 m/S 707 mmHg 29%
    15:00 +15°C° 0 mm 2 m/S 707 mmHg 30%
    16:00 +15°C° 0 mm 1 m/S 707 mmHg 32%
    17:00 +15°C° 0 mm 1 m/S 708 mmHg 33%
    18:00 +14°C° 0 mm 1 m/S 708 mmHg 37%
    19:00 +13°C° 0 mm 1 m/S 709 mmHg 40%
    20:00 +11°C° 0 mm 1 m/S 710 mmHg 44%
    21:00 +11°C° 0 mm 1 m/S 710 mmHg 44%
    22:00 +10°C° 0 mm 1 m/S 710 mmHg 45%
    23:00 +10°C° 0 mm 1 m/S 710 mmHg 45%

    1 Februar, Samstag

    Zeit Temperatur Niederschläge Wind Luftdruck Luftfeuchtigkeit
    00:00 +10°C° 0 mm 1 m/S 710 mmHg 45%
    01:00 +9°C° 0 mm 1 m/S 710 mmHg 45%
    02:00 +9°C° 0 mm 1 m/S 710 mmHg 45%
    03:00 +8°C° 0 mm 1 m/S 710 mmHg 45%
    04:00 +8°C° 0 mm 1 m/S 710 mmHg 44%
    05:00 +8°C° 0 mm 1 m/S 710 mmHg 44%
    06:00 +8°C° 0 mm 1 m/S 710 mmHg 44%
    07:00 +8°C° 0 mm 1 m/S 711 mmHg 44%
    08:00 +8°C° 0 mm 1 m/S 711 mmHg 43%
    09:00 +9°C° 0 mm 1 m/S 711 mmHg 38%
    10:00 +11°C° 0 mm 1 m/S 711 mmHg 33%
    11:00 +13°C° 0 mm 1 m/S 711 mmHg 27%
    12:00 +14°C° 0 mm 1 m/S 711 mmHg 26%
    13:00 +15°C° 0 mm 1 m/S 711 mmHg 24%
    14:00 +15°C° 0 mm 1 m/S 710 mmHg 22%
    15:00 +15°C° 0 mm 1 m/S 711 mmHg 23%
    16:00 +15°C° 0 mm 1 m/S 711 mmHg 25%
    17:00 +15°C° 0 mm 1 m/S 711 mmHg 26%
    18:00 +14°C° 0 mm 1 m/S 712 mmHg 29%
    19:00 +13°C° 0 mm 1 m/S 712 mmHg 32%
    20:00 +11°C° 0 mm 1 m/S 713 mmHg 34%
    21:00 +11°C° 0 mm 1 m/S 713 mmHg 35%
    22:00 +10°C° 0 mm 1 m/S 713 mmHg 35%
    23:00 +10°C° 0 mm 1 m/S 713 mmHg 35%
    Mehr zeigen